Вернуться в каталог

THORAD DELTA 1 DEB

АктивенSSO
NORAD 8152·DEBRIS·🇺🇸 United States

Запущен Nov 15, 1974 с Vandenberg Space Force Base

Loading…

Ближайшие Пролёты (ближайшие 24 часа)

TLE

СвежийSource: Space-Track

Эпоха: Sep 14, 2026, 12:07 UTC

1 08152U 74089S   26257.50523367  .00000015  00000-0  34870-3 0  9998
2 08152 101.8519 267.1284 0059297 178.4492 336.4072 12.60155883381938

Отслеживайте THORAD DELTA 1 DEB в реальном времени с AllMySat

Download on the App Store